{"data":{"norad_id":46232,"epoch":"2026-05-25T05:04:15.233952Z","epoch_age_seconds":63549,"freshness":"FRESH","line1":"1 46232U 20058A   26145.21128743  .00005803  00000+0  19275-3 0  9990","line2":"2 46232  97.2106 186.1111 0008904 166.3128 193.8357 15.31549752320093","mean_motion":15.31549752,"eccentricity":0.0008904,"inclination_deg":97.2106,"raan_deg":186.1111,"arg_perigee_deg":166.3128,"mean_anomaly_deg":193.8357,"bstar":0.00019275,"rev_number":32009,"period_min":94.022410837098,"perigee_km":465.0892744072,"apogee_km":477.28655221282,"semimajor_km":6849.32491331,"source":"CELESTRAK","updated_at":"2026-05-25T13:37:56.288342Z"}}